Location: Newark
(30.0333°N, 31.2167°E)
Time: 18:01:49
(UTC+00:00)

Tiros 1 despin weight - Pass Details

Date: 20 January 2020
Orbit: 594 x 642 km, 48.2° (Epoch: 23 February)

Event Time Altitude Azimuth Distance (km) Brightness Sun altitude
Rises 09:57:59 0° 227° (SW) 2,846 ? 39.7°
Reaches altitude 10° 10:00:15 10° 227° (SW) 1,952 ? 39.8°
Maximum altitude 10:04:44 89° 147° (SSE) 619 ? 39.8°
Drops below altitude 10° 10:09:20 10° 49° (NE) 1,991 ? 39.8°
Sets 10:11:40 0° 49° (NE) 2,908 ? 39.8°
